Lapse_Rate
3.5 3.3 3.2 3.0 4.3 4.4 3.9 3.5 3.5 2.3 2.5 1.4 0.8 0.8 0.1 0.1 0.2 0.4 0.8 1.1 1.4 1.5 1.0 1.6 2.0 2.2 2.8 3.1 3.2 3.7 3.8 4.1 4.6 3.0 3.9 3.3 3.7 3.8 2.7 2.5 2.3 2.8 3.3
3.1 4.3 4.3 3.7 3.3 3.9 3.9 2.5 2.9 2.0 1.6 2.2 1.6 1.9 0.7 0.4 0.0 0.2 0.3 0.5 1.0 0.8 1.2 1.3 1.8 1.8 2.6 3.2 3.6 3.6 3.9 3.6 3.7 3.9 3.4 3.6 3.8 2.9 2.6 2.5 2.3 2.5 2.6
5.6 4.8 4.8 4.7 4.2 3.4 4.0 1.6 2.4 3.1 2.2 1.5 1.8 1.6 1.6 0.7 0.3 0.2 0.8 0.3 0.9 1.4 1.3 1.0 1.6 1.6 2.0 2.0 2.8 3.6 3.8 3.5 3.6 3.7 3.0 2.6 2.7 2.5 2.6 2.1 2.3 2.3 2.7
5.5 5.8 5.1 4.5 4.3 3.1 2.6 2.6 2.3 2.4 3.2 2.0 1.3 1.5 1.8 1.3 0.5 0.1 0.5 1.1 0.4 0.9 0.8 0.9 1.6 1.6 2.6 2.3 2.6 3.1 3.1 3.5 3.5 3.7 3.2 2.5 2.7 1.8 2.1 3.1 3.0 2.2 3.0
5.3 4.9 4.7 4.5 4.6 4.0 3.7 3.1 3.1 2.7 2.8 2.5 2.2 1.4 1.5 1.0 1.0 0.4 1.0 1.0 0.2 0.3 0.2 0.2 0.8 1.2 1.5 2.6 2.6 2.5 2.7 3.0 3.1 3.0 2.6 1.7 2.4 2.0 3.0 2.0 2.9 2.4 2.3
5.3 5.1 4.9 4.4 4.1 3.7 3.4 1.6 1.8 1.8 2.1 2.1 1.8 1.8 1.3 1.3 1.3 1.1 1.5 0.5 1.1 1.3 -0.8 -0.6 0.3 0.2 0.9 1.9 2.5 2.7 2.6 2.5 2.1 2.3 2.5 2.9 2.2 2.2 1.4 2.2 2.3 2.7 4.0
5.8 4.8 4.7 4.7 4.3 3.9 3.7 3.4 2.4 1.3 1.2 1.2 1.1 0.8 1.1 0.7 1.5 1.9 2.4 2.1 2.2 1.6 1.0 1.0 0.2 0.5 1.0 2.1 2.6 2.8 2.6 3.3 3.8 3.2 2.5 2.4 1.9 1.3 1.7 1.5 2.1 2.6 2.9
5.0 5.0 4.3 4.2 4.3 3.9 3.4 2.8 2.3 1.9 1.7 0.7 1.2 1.3 1.2 0.3 1.1 1.9 2.2 1.4 3.1 2.3 1.7 1.3 1.5 1.0 1.1 1.7 2.1 2.0 2.2 2.7 2.5 2.2 3.1 2.6 2.6 1.2 2.0 2.4 2.4 2.1 1.5
4.4 4.3 3.8 3.5 3.4 2.8 2.9 2.8 2.5 2.5 2.1 2.0 1.3 0.4 -0.1 -0.4 2.2 2.7 2.2 1.9 1.8 2.2 1.7 1.7 1.3 1.5 1.7 1.6 1.5 1.6 1.3 1.4 1.8 1.8 1.9 1.7 1.6 1.6 1.2 1.4 1.6 2.4 2.8
3.3 2.8 2.5 2.6 2.7 2.6 2.5 2.0 1.9 2.1 2.4 1.4 1.1 1.0 1.7 1.6 0.8 1.2 1.0 1.1 1.6 2.5 1.5 2.0 2.8 2.3 2.7 2.4 1.9 1.7 1.9 1.7 1.7 1.8 2.3 2.6 2.6 2.3 1.9 2.5 2.5 2.8 2.7
1.4 1.7 1.8 1.6 2.2 2.5 2.2 1.8 1.9 2.0 1.7 2.0 1.6 1.1 0.9 1.4 1.9 2.2 1.9 2.1 1.6 0.6 1.9 2.3 2.5 3.1 3.8 3.3 2.4 2.2 2.8 1.6 2.3 2.2 2.1 1.7 2.1 2.6 2.0 1.7 2.2 2.7 2.2
1.2 1.3 1.1 1.1 1.4 1.3 1.6 1.3 1.4 1.3 1.9 1.6 1.0 0.9 1.2 1.6 2.8 3.4 3.0 2.7 3.5 3.3 3.6 3.1 2.1 3.2 3.5 3.5 2.8 2.8 3.9 3.4 2.2 2.3 2.2 2.2 1.9 1.6 1.5 1.6 1.5 1.5 1.8
0.9 0.6 0.6 0.7 0.9 1.1 1.9 1.8 1.8 1.3 1.9 2.1 1.7 1.4 1.1 1.2 2.8 4.0 4.7 4.2 4.2 4.9 4.1 3.4 2.5 3.4 3.7 4.2 3.8 4.2 4.4 2.6 2.9 2.6 2.5 2.4 1.9 2.1 1.5 1.1 0.8 0.8 1.1
1.0 0.9 0.9 1.1 1.0 0.9 1.2 1.7 2.4 2.9 3.1 2.8 2.9 3.0 2.3 2.2 3.0 4.6 4.7 5.0 5.3 4.9 4.1 3.7 3.9 4.5 4.2 4.0 4.3 5.1 3.9 3.2 2.9 2.7 2.8 2.6 2.1 1.9 1.8 1.9 2.0 1.8 2.0
1.8 1.6 1.7 1.6 1.4 1.4 1.2 1.7 2.1 2.0 2.8 3.2 3.7 3.5 2.7 2.5 2.8 4.1 4.7 4.6 3.9 2.5 2.4 3.2 3.7 4.3 4.4 4.0 4.4 4.7 3.6 3.5 3.6 3.0 3.1 2.9 2.7 2.7 2.8 2.3 2.4 1.9 2.7
2.5 2.6 2.8 2.5 2.5 2.3 2.4 2.7 3.5 3.8 3.9 3.9 3.6 3.7 3.5 3.9 4.1 4.1 4.8 5.0 4.6 3.6 2.9 3.3 3.5 3.8 4.0 3.9 4.3 4.4 4.1 4.0 3.3 3.1 3.2 3.3 3.7 4.3 3.6 2.8 2.5 2.7 3.1
2.8 2.8 2.7 2.7 2.6 2.7 2.8 3.0 3.5 3.7 4.4 4.8 4.6 4.4 4.2 4.1 4.6 4.2 4.4 4.8 4.9 4.8 4.3 3.8 3.8 3.8 4.0 3.7 3.9 4.0 3.6 3.6 3.3 4.9 3.7 3.3 4.2 5.2 4.9 4.2 3.4 3.5 3.0
3.0 3.4 2.7 2.8 2.7 2.7 2.6 2.9 3.3 3.5 4.0 3.9 4.9 4.5 4.5 4.3 4.8 5.0 5.0 5.5 5.7 6.2 4.2 4.1 3.9 3.8 3.5 3.3 3.1 3.5 3.7 3.8 4.4 5.6 4.2 4.5 4.3 5.5 5.2 4.4 3.8 3.6 3.6
4.1 3.6 3.3 3.1 3.5 3.8 3.5 3.5 3.7 4.0 4.1 4.4 4.3 4.4 4.5 4.3 4.2 4.6 5.0 5.0 5.3 5.3 4.0 4.3 4.5 4.3 3.5 3.4 3.6 3.8 3.7 3.9 5.0 5.5 5.0 4.5 4.7 4.6 5.6 5.3 4.3 4.5 4.5
3.7 4.6 4.2 3.8 3.8 3.9 3.7 3.9 4.0 4.0 4.2 4.3 4.6 4.4 4.5 4.6 4.4 4.1 4.0 4.2 4.3 4.4 4.2 4.2 4.1 4.6 4.9 4.4 3.9 4.5 4.6 5.0 5.0 5.0 5.2 5.0 4.5 4.7 5.9 5.4 4.7 4.9 5.0
3.8 3.9 4.6 3.8 3.8 4.1 3.9 4.0 4.1 4.3 4.3 4.6 4.6 4.5 5.4 5.2 5.2 5.3 5.2 5.0 4.8 4.7 4.5 4.4 4.4 4.3 4.3 4.6 4.8 5.0 5.5 5.6 5.6 5.4 4.9 4.9 4.9 5.0 5.3 5.2 4.4 4.3 4.0
3.6 3.6 3.6 3.3 3.7 4.5 4.2 4.0 4.0 4.0 3.9 4.0 4.3 4.6 5.6 5.6 5.8 5.6 5.4 5.2 5.0 5.0 5.0 4.9 4.9 5.0 5.0 5.0 5.2 5.2 5.5 5.8 5.6 5.2 4.9 5.0 5.0 5.0 4.6 4.0 3.8 3.5 3.5
3.4 3.3 3.4 3.4 3.7 4.1 3.7 3.9 3.9 3.8 4.2 4.3 4.2 4.6 4.6 4.5 5.0 5.0 5.1 5.3 4.9 4.6 4.7 4.6 5.0 5.2 5.2 5.0 5.0 5.1 5.3 5.3 5.1 4.8 5.1 5.2 4.6 4.0 3.8 3.8 3.8 4.0 3.9
3.4 3.4 3.3 3.3 3.6 3.6 3.5 3.6 3.5 3.9 4.2 4.0 4.0 4.5 4.5 4.6 4.6 4.5 4.7 4.9 4.7 4.4 4.4 4.5 4.7 4.9 5.0 4.9 5.0 5.0 4.9 4.8 4.8 5.0 5.7 4.5 3.8 4.2 4.1 4.4 4.4 4.4 4.4
2.7 2.6 2.7 2.6 2.7 3.1 3.4 3.5 3.6 3.7 3.7 3.9 4.0 4.2 4.1 4.0 3.8 3.8 3.9 3.9 3.8 3.9 4.1 4.3 4.4 4.4 4.4 4.3 4.6 4.7 5.0 5.1 5.0 4.8 4.2 4.2 4.2 4.2 4.1 4.4 4.3 4.3 4.8
3.9 3.8 3.8 3.9 3.6 3.7 3.6 3.5 3.4 3.5 3.4 3.9 4.1 3.9 3.9 3.7 3.6 3.3 3.1 2.9 2.7 2.8 2.7 3.0 3.1 2.8 2.9 3.2 3.4 3.5 4.1 4.8 4.9 4.5 3.8 3.9 4.3 4.2 4.0 4.0 4.0 5.0 6.3
Wind_Speed
14 15 14 14 15 15 13 11 13 12 11 12 14 15 14 14 12 12 12 12 12 10 9 11 10 8 6 6 5 5 4 4 5 2 2 5 3 4 6 5 5 6 7
14 15 16 15 14 14 13 13 13 13 13 12 12 13 14 14 13 13 13 12 14 13 12 11 10 7 9 8 7 7 6 5 4 7 3 3 2 4 5 5 7 7 7
14 13 14 15 14 15 14 13 13 13 12 13 12 13 13 14 14 13 13 13 12 12 12 12 12 11 10 8 7 7 6 5 4 5 4 1 2 2 3 4 5 5 6
14 14 14 14 15 14 13 13 13 13 12 12 13 14 14 13 13 14 13 13 13 12 11 11 11 11 11 11 8 9 7 7 5 5 4 3 2 2 2 3 3 2 2
11 12 12 13 13 12 12 13 13 13 12 13 13 12 12 12 10 13 13 12 11 11 10 10 10 12 13 12 7 9 9 7 7 7 4 3 4 4 5 4 3 3 2
10 10 10 9 10 11 13 12 12 13 13 13 13 14 14 11 17 20 17 11 11 11 11 10 9 13 13 16 13 15 13 10 9 5 5 5 6 4 4 5 4 3 3
8 7 7 9 10 10 10 11 12 13 10 13 12 12 13 11 17 19 15 7 9 9 9 9 8 7 11 10 13 15 14 14 11 9 8 7 7 8 8 5 3 2 2
5 4 5 7 9 8 8 8 9 9 11 12 9 6 5 8 19 20 19 8 6 6 7 8 8 9 10 11 10 10 9 8 7 5 6 7 5 13 9 6 5 4 2
2 3 3 5 5 6 7 7 5 7 5 6 7 13 12 9 16 17 15 8 7 6 5 7 9 9 14 17 11 10 8 5 8 10 9 12 14 17 13 9 4 3 2
3 3 4 4 4 5 4 4 3 3 4 5 6 8 12 13 29 29 20 10 9 5 5 3 12 10 18 21 11 11 10 9 8 8 8 12 16 16 16 6 6 4 2
4 4 4 4 4 3 4 3 5 6 7 7 7 6 7 7 12 19 18 8 9 8 8 6 6 16 18 19 16 11 10 11 12 8 7 6 5 8 9 7 8 4 3
5 5 5 4 3 3 4 3 5 6 7 6 6 4 5 8 15 18 20 14 12 8 9 8 9 19 19 19 16 16 15 15 7 7 7 7 6 6 5 8 8 6 3
6 6 5 5 5 4 4 4 3 4 4 3 3 3 2 3 4 15 18 19 18 10 8 12 16 20 19 16 16 18 17 7 8 7 7 6 6 4 8 6 5 4 4
7 6 5 5 6 5 4 3 3 3 3 3 4 3 3 3 3 6 9 10 14 8 11 9 12 14 15 12 12 12 8 8 9 8 7 4 4 4 6 4 4 4 2
7 6 5 4 5 4 4 3 2 1 1 2 3 4 5 5 6 8 9 8 8 9 10 6 6 7 8 7 7 8 7 7 7 6 5 5 5 5 5 5 3 3 4
10 7 6 4 4 4 3 3 6 2 1 3 3 2 1 0 9 14 12 13 15 20 4 5 7 8 10 9 8 8 7 9 6 6 5 5 5 6 6 5 4 5 5
9 8 6 8 6 5 4 4 3 5 11 6 6 6 5 1 7 12 12 12 16 16 4 6 7 8 7 8 8 7 7 6 6 6 6 5 5 5 7 6 6 6 6
10 18 7 6 6 6 6 5 4 3 3 3 11 9 11 13 9 2 6 9 7 9 3 6 6 6 6 7 6 6 5 5 6 6 6 6 7 6 5 6 7 7 7
9 8 7 6 7 8 6 5 5 5 5 4 4 6 6 7 5 3 1 1 4 5 5 5 5 5 6 6 6 5 6 6 7 6 6 6 5 7 7 7 7 13 10
9 16 12 7 6 6 6 6 6 6 6 5 5 4 3 3 2 1 1 2 1 1 2 4 5 5 5 5 5 6 6 7 7 6 6 6 6 7 8 8 7 6 8
5 6 11 6 6 6 5 6 5 4 4 4 4 4 4 2 2 2 1 1 2 3 3 3 4 5 5 6 6 6 7 7 6 6 6 5 6 7 7 7 7 7 5
5 4 4 5 4 5 5 5 5 5 5 4 4 4 7 2 0 1 3 3 3 3 3 4 4 5 5 6 6 7 7 6 6 6 6 6 7 7 7 7 6 5 5
5 6 5 5 5 7 4 4 3 3 4 3 4 3 3 2 2 2 3 3 2 3 2 3 4 4 5 8 10 8 6 7 7 6 6 6 7 7 7 7 7 6 6
5 6 5 4 4 4 4 4 4 6 5 4 4 4 4 4 4 4 3 3 3 4 4 3 4 7 6 9 10 11 11 11 11 11 12 7 7 9 6 7 7 7 6
6 6 6 5 5 4 4 4 4 4 4 4 4 4 4 4 4 4 4 4 3 3 4 4 6 8 10 11 11 13 15 16 15 15 13 9 9 10 8 7 8 7 7
4 5 5 5 5 5 5 5 5 4 4 4 4 4 4 3 3 4 4 4 3 4 5 4 7 11 11 11 14 15 16 17 16 18 13 9 7 7 7 8 10 6 7
Wind_Direction
198 204 212 206 215 213 209 196 197 179 189 184 181 186 183 181 187 189 190 186 192 190 184 186 188 174 177 174 163 159 161 153 144 131 130 150 136 127 100 83 79 84 71
207 204 206 209 206 211 206 197 191 192 183 187 184 196 187 184 182 189 188 189 192 191 188 185 187 176 178 176 173 167 170 159 133 149 149 144 151 144 110 97 118 99 84
200 204 207 208 204 205 204 188 187 196 199 183 181 185 196 188 186 191 195 183 190 194 190 182 183 181 179 180 182 173 169 159 142 144 136 146 114 161 122 96 130 134 79
194 201 202 201 203 201 198 197 186 187 194 192 187 190 199 195 191 182 187 195 182 189 184 184 177 182 184 181 177 178 170 160 142 139 136 135 152 132 129 150 155 173 187
196 200 209 206 203 198 197 195 190 190 194 194 197 196 193 184 188 182 190 195 185 188 183 178 179 181 179 184 174 183 172 167 162 161 161 147 160 164 190 158 158 153 160
199 204 203 200 198 192 192 183 190 192 196 191 197 195 190 193 188 184 183 181 184 195 181 178 177 174 175 180 184 180 178 174 172 160 162 180 179 166 154 164 156 166 185
197 189 183 185 195 201 197 193 195 195 188 203 197 191 198 187 184 178 176 177 178 190 180 181 168 174 164 170 182 186 189 191 182 174 179 184 168 172 152 153 160 158 153
206 171 176 180 189 191 193 189 191 186 187 179 178 188 198 179 181 176 172 151 171 177 184 175 169 167 173 163 156 167 180 183 178 180 190 174 168 157 153 150 156 141 117
113 131 151 158 159 159 176 180 170 178 190 207 189 178 164 141 172 168 157 149 143 178 164 178 169 175 178 162 156 160 162 172 177 177 176 157 153 155 146 130 150 160 160
73 106 110 114 133 147 152 143 133 154 175 142 181 189 189 183 177 170 161 156 159 180 142 186 192 174 179 171 164 165 172 177 152 138 138 143 153 161 163 166 162 163 145
44 66 73 83 114 137 136 130 145 150 147 159 165 149 138 170 186 168 159 175 170 163 171 180 190 188 183 177 169 175 185 160 159 148 144 140 150 157 163 179 180 160 154
59 63 58 55 60 85 118 109 132 140 149 150 137 140 156 165 171 173 172 164 171 165 191 190 186 183 182 180 176 177 169 154 150 156 158 169 180 181 182 179 175 169 156
64 58 55 55 57 60 88 96 97 112 124 152 154 152 145 136 178 180 186 181 181 189 182 184 173 180 181 181 179 177 170 165 165 166 181 188 193 171 153 156 161 160 173
72 56 45 47 44 41 59 84 120 143 152 151 152 164 172 163 161 181 179 183 187 171 157 165 175 178 178 179 173 182 175 177 180 182 186 169 137 163 178 172 175 175 187
66 68 58 57 60 54 45 41 56 8 150 170 178 158 156 181 196 181 178 183 177 162 141 144 163 169 175 176 176 180 173 172 178 168 168 166 174 177 187 180 167 171 200
51 44 47 58 58 60 66 54 38 57 114 116 134 136 205 184 177 195 197 181 166 155 133 168 176 183 188 183 180 179 177 178 171 170 172 170 176 190 190 185 186 196 210
53 48 53 51 46 42 41 38 43 22 55 72 87 86 56 233 187 195 198 179 172 165 173 173 177 182 184 181 179 177 181 180 163 177 177 184 173 205 201 202 200 204 220
46 47 45 41 38 36 38 39 44 51 55 44 61 66 51 44 50 104 181 171 177 181 149 162 172 174 173 173 170 175 169 166 190 189 186 193 179 203 201 212 203 207 213
44 42 39 38 38 40 33 37 37 40 45 52 29 37 40 57 69 82 234 190 188 181 166 166 170 174 177 173 172 172 181 187 193 188 186 189 182 200 216 217 211 211 207
30 43 45 39 39 37 34 37 36 35 35 32 31 20 4 32 34 35 13 41 142 117 143 166 169 166 175 175 182 189 193 201 193 191 192 198 201 207 217 210 204 206 209
28 29 30 27 24 24 27 30 27 30 30 27 21 360 350 45 3 353 336 216 205 193 185 187 187 188 187 188 188 192 203 201 194 194 198 198 204 210 215 209 203 203 198
25 24 22 24 7 25 29 25 21 12 12 11 2 359 2 12 267 272 286 262 227 209 204 194 195 196 194 194 195 197 197 206 208 204 204 209 210 208 196 191 191 191 191
22 17 15 11 4 16 10 7 1 351 339 335 336 336 342 342 308 279 274 272 239 224 200 197 206 203 199 199 201 205 212 214 207 198 204 208 203 198 190 188 186 183 184
15 6 360 356 347 2 352 354 348 351 345 337 332 326 320 313 307 296 287 286 260 247 233 221 221 235 234 229 226 220 215 213 201 204 204 200 201 195 186 186 184 184 176
1 351 348 345 342 337 332 333 329 331 332 330 327 326 325 326 320 312 306 298 283 272 254 240 233 231 229 226 224 222 223 219 210 207 194 195 194 184 177 178 173 174 179
340 329 320 317 318 320 323 322 321 321 321 319 315 311 305 310 317 316 312 305 293 283 277 263 251 247 250 251 252 248 241 236 228 215 193 181 179 182 180 177 173 178 184